• Em Portugal
  • Lista de países
  • Para 7 dias
  • Temperatura da água
  • Mapas de satélite
  • Mapa do tempo
  • Widgets de tempo
  • user-avatar
    Iniciar Sessão

    Previsão horária em Bujumbura

    Hoje, 23 Novembro, Quinta-feira

    Tempo Temperatura Precipitação Vento Pressão Humidade
    00:00 +23°C° 0,1 mm 1 m/s 690 mmHg 88%
    01:00 +23°C° 0,1 mm 1 m/s 690 mmHg 87%
    02:00 +23°C° 0,1 mm 1 m/s 690 mmHg 87%
    03:00 +22°C° 0,1 mm 1 m/s 690 mmHg 87%
    04:00 +22°C° 0,1 mm 1 m/s 690 mmHg 87%
    05:00 +22°C° 0,1 mm 1 m/s 690 mmHg 86%
    06:00 +24°C° 0,1 mm 1 m/s 690 mmHg 81%
    07:00 +26°C° 0,1 mm 1 m/s 691 mmHg 76%
    08:00 +28°C° 0 mm 1 m/s 692 mmHg 68%
    09:00 +29°C° 0,1 mm 1 m/s 692 mmHg 61%
    10:00 +31°C° 0,1 mm 1 m/s 692 mmHg 54%
    11:00 +33°C° 0,1 mm 1 m/s 691 mmHg 47%
    12:00 +33°C° 0,3 mm 1 m/s 691 mmHg 48%
    13:00 +33°C° 0,3 mm 1 m/s 690 mmHg 50%
    14:00 +33°C° 0,3 mm 1 m/s 689 mmHg 51%
    15:00 +31°C° 0,5 mm 1 m/s 689 mmHg 56%
    16:00 +30°C° 0,5 mm 1 m/s 689 mmHg 61%
    17:00 +29°C° 0,5 mm 1 m/s 689 mmHg 65%
    18:00 +28°C° 0,9 mm 1 m/s 689 mmHg 70%
    19:00 +26°C° 0,9 mm 1 m/s 690 mmHg 75%
    20:00 +23°C° 0,9 mm 0 m/s 690 mmHg 79%
    21:00 +25°C° 0,2 mm 1 m/s 690 mmHg 80%
    22:00 +24°C° 0,2 mm 1 m/s 690 mmHg 80%
    23:00 +24°C° 0,2 mm 1 m/s 691 mmHg 81%

    Amanhã, 24 Novembro, Sexta-feira

    Tempo Temperatura Precipitação Vento Pressão Humidade
    00:00 +24°C° 0,2 mm 1 m/s 691 mmHg 81%
    01:00 +24°C° 0,2 mm 1 m/s 690 mmHg 81%
    02:00 +24°C° 0,2 mm 1 m/s 690 mmHg 81%
    03:00 +23°C° 0,1 mm 1 m/s 690 mmHg 81%
    04:00 +23°C° 0,1 mm 1 m/s 690 mmHg 82%
    05:00 +21°C° 0,1 mm 0 m/s 690 mmHg 82%
    06:00 +25°C° 0,1 mm 1 m/s 691 mmHg 78%
    07:00 +26°C° 0,1 mm 1 m/s 691 mmHg 75%
    08:00 +27°C° 0,1 mm 1 m/s 692 mmHg 71%
    09:00 +29°C° 0,1 mm 1 m/s 692 mmHg 65%
    10:00 +30°C° 0,1 mm 1 m/s 692 mmHg 59%
    11:00 +32°C° 0,1 mm 1 m/s 692 mmHg 53%
    12:00 +32°C° 0,4 mm 2 m/s 691 mmHg 56%
    13:00 +31°C° 0,4 mm 2 m/s 690 mmHg 58%
    14:00 +31°C° 0,4 mm 2 m/s 689 mmHg 61%
    15:00 +30°C° 1,3 mm 2 m/s 689 mmHg 67%
    16:00 +28°C° 1,3 mm 1 m/s 689 mmHg 73%
    17:00 +27°C° 1,3 mm 1 m/s 689 mmHg 79%
    18:00 +26°C° 2,2 mm 1 m/s 689 mmHg 83%
    19:00 +25°C° 2,2 mm 1 m/s 690 mmHg 87%
    20:00 +23°C° 2,2 mm 0 m/s 691 mmHg 91%
    21:00 +24°C° 2,3 mm 1 m/s 691 mmHg 91%
    22:00 +24°C° 2,3 mm 1 m/s 691 mmHg 92%
    23:00 +24°C° 2,3 mm 1 m/s 692 mmHg 92%

    Depois de amanhã, 25 Novembro, Sábado

    Tempo Temperatura Precipitação Vento Pressão Humidade
    00:00 +24°C° 1 mm 1 m/s 691 mmHg 92%
    01:00 +23°C° 1 mm 1 m/s 691 mmHg 92%
    02:00 +23°C° 1 mm 1 m/s 690 mmHg 92%
    03:00 +23°C° 0,4 mm 1 m/s 690 mmHg 92%
    04:00 +23°C° 0,4 mm 1 m/s 690 mmHg 92%
    05:00 +23°C° 0,4 mm 1 m/s 690 mmHg 91%
    06:00 +24°C° 0,1 mm 1 m/s 691 mmHg 88%
    07:00 +25°C° 0,1 mm 1 m/s 692 mmHg 84%
    08:00 +26°C° 0,1 mm 1 m/s 692 mmHg 81%
    09:00 +28°C° 0,1 mm 1 m/s 692 mmHg 72%
    10:00 +30°C° 0,1 mm 1 m/s 692 mmHg 63%
    11:00 +32°C° 0,1 mm 2 m/s 692 mmHg 55%
    12:00 +32°C° 0,3 mm 1 m/s 691 mmHg 56%
    13:00 +31°C° 0,3 mm 1 m/s 690 mmHg 58%
    14:00 +31°C° 0,3 mm 1 m/s 689 mmHg 60%
    15:00 +30°C° 0,5 mm 1 m/s 689 mmHg 64%
    16:00 +29°C° 0,5 mm 1 m/s 689 mmHg 68%
    17:00 +28°C° 0,5 mm 1 m/s 689 mmHg 73%
    18:00 +27°C° 0,7 mm 1 m/s 690 mmHg 77%
    19:00 +24°C° 0,7 mm 0 m/s 691 mmHg 81%
    20:00 +23°C° 0,7 mm 0 m/s 692 mmHg 84%
    21:00 +22°C° 1,1 mm 0 m/s 692 mmHg 86%
    22:00 +22°C° 1,1 mm 0 m/s 692 mmHg 87%
    23:00 +24°C° 1,1 mm 1 m/s 692 mmHg 88%

    26 Novembro, Domingo

    Tempo Temperatura Precipitação Vento Pressão Humidade
    00:00 +23°C° 1,1 mm 1 m/s 692 mmHg 89%
    01:00 +23°C° 1,1 mm 1 m/s 692 mmHg 89%
    02:00 +23°C° 1,1 mm 1 m/s 691 mmHg 90%
    03:00 +23°C° 0,5 mm 1 m/s 691 mmHg 90%
    04:00 +23°C° 0,5 mm 1 m/s 691 mmHg 90%
    05:00 +22°C° 0,5 mm 1 m/s 691 mmHg 90%
    06:00 +24°C° 0,1 mm 1 m/s 692 mmHg 86%
    07:00 +25°C° 0,1 mm 1 m/s 693 mmHg 82%
    08:00 +26°C° 0,1 mm 1 m/s 693 mmHg 78%
    09:00 +28°C° 0 mm 1 m/s 694 mmHg 71%
    10:00 +29°C° 0 mm 1 m/s 694 mmHg 63%
    11:00 +31°C° 0 mm 1 m/s 694 mmHg 56%
    12:00 +31°C° 0,6 mm 1 m/s 693 mmHg 58%
    13:00 +31°C° 0,6 mm 1 m/s 692 mmHg 59%
    14:00 +31°C° 0,6 mm 2 m/s 691 mmHg 61%
    15:00 +30°C° 1 mm 1 m/s 691 mmHg 66%
    16:00 +29°C° 1 mm 1 m/s 691 mmHg 70%
    17:00 +28°C° 1 mm 1 m/s 691 mmHg 74%
    18:00 +27°C° 0,6 mm 1 m/s 691 mmHg 79%
    19:00 +25°C° 0,6 mm 1 m/s 692 mmHg 83%
    20:00 +22°C° 0,6 mm 0 m/s 692 mmHg 88%
    21:00 +22°C° 0,7 mm 0 m/s 693 mmHg 89%
    22:00 +22°C° 0,7 mm 0 m/s 693 mmHg 90%
    23:00 +22°C° 0,7 mm 0 m/s 693 mmHg 91%

    27 Novembro, Segunda-feira

    Tempo Temperatura Precipitação Vento Pressão Humidade
    00:00 +21°C° 0,6 mm 0 m/s 693 mmHg 91%
    01:00 +21°C° 0,6 mm 0 m/s 692 mmHg 91%
    02:00 +21°C° 0,6 mm 0 m/s 692 mmHg 91%
    03:00 +21°C° 0 mm 0 m/s 692 mmHg 91%
    04:00 +22°C° 0 mm 1 m/s 692 mmHg 91%
    05:00 +22°C° 0 mm 1 m/s 692 mmHg 90%
    06:00 +24°C° 0 mm 1 m/s 693 mmHg 85%
    07:00 +25°C° 0 mm 1 m/s 693 mmHg 79%
    08:00 +27°C° 0 mm 1 m/s 694 mmHg 73%
    09:00 +28°C° 0 mm 1 m/s 694 mmHg 67%
    10:00 +30°C° 0 mm 1 m/s 694 mmHg 61%
    11:00 +31°C° 0 mm 1 m/s 693 mmHg 55%
    12:00 +32°C° 0,5 mm 1 m/s 692 mmHg 56%
    13:00 +32°C° 0,5 mm 2 m/s 692 mmHg 57%
    14:00 +32°C° 0,5 mm 2 m/s 691 mmHg 58%
    15:00 +31°C° 1 mm 2 m/s 690 mmHg 63%
    16:00 +30°C° 1 mm 2 m/s 690 mmHg 68%
    17:00 +29°C° 1 mm 1 m/s 690 mmHg 73%
    18:00 +27°C° 0,8 mm 1 m/s 691 mmHg 78%
    19:00 +26°C° 0,8 mm 1 m/s 691 mmHg 84%
    20:00 +24°C° 0,8 mm 1 m/s 692 mmHg 89%
    21:00 +24°C° 0,3 mm 1 m/s 692 mmHg 90%
    22:00 +24°C° 0,3 mm 1 m/s 692 mmHg 90%
    23:00 +21°C° 0,3 mm 0 m/s 693 mmHg 90%

    28 Novembro, Terça-feira

    Tempo Temperatura Precipitação Vento Pressão Humidade
    00:00 +21°C° 0,1 mm 0 m/s 692 mmHg 90%
    01:00 +21°C° 0,1 mm 0 m/s 692 mmHg 91%
    02:00 +20°C° 0,1 mm 0 m/s 691 mmHg 91%
    03:00 +20°C° 0 mm 0 m/s 691 mmHg 90%
    04:00 +22°C° 0 mm 1 m/s 692 mmHg 90%
    05:00 +22°C° 0 mm 1 m/s 692 mmHg 90%
    06:00 +24°C° 0 mm 1 m/s 692 mmHg 84%
    07:00 +25°C° 0 mm 1 m/s 693 mmHg 78%
    08:00 +27°C° 0 mm 1 m/s 693 mmHg 72%
    09:00 +29°C° 0 mm 1 m/s 693 mmHg 63%
    10:00 +31°C° 0 mm 1 m/s 693 mmHg 54%
    11:00 +33°C° 0 mm 1 m/s 692 mmHg 45%
    12:00 +33°C° 0 mm 1 m/s 691 mmHg 46%
    13:00 +33°C° 0 mm 1 m/s 690 mmHg 46%
    14:00 +33°C° 0 mm 1 m/s 690 mmHg 47%
    15:00 +31°C° 0,2 mm 1 m/s 690 mmHg 53%
    16:00 +30°C° 0,2 mm 1 m/s 690 mmHg 59%
    17:00 +29°C° 0,2 mm 1 m/s 690 mmHg 65%
    18:00 +27°C° 0,6 mm 1 m/s 690 mmHg 71%
    19:00 +26°C° 0,6 mm 1 m/s 691 mmHg 77%
    20:00 +22°C° 0,6 mm 0 m/s 691 mmHg 83%
    21:00 +22°C° 0,3 mm 0 m/s 692 mmHg 84%
    22:00 +22°C° 0,3 mm 0 m/s 692 mmHg 84%
    23:00 +22°C° 0,3 mm 0 m/s 692 mmHg 85%
    Mostrar mais